Regional Weather Roundup
Issued by NWS

Home | Current Version | Previous Version | Graphics & Text | Print | Product List | Glossary On
Versions: 1 2 3 4 5 6 7 8 9 10 11 12 13 14 15 16 17 18 19 20 21 22 23 24 25 26 27 28 29 30 31 32 33 34 35 36 37 38 39 40 41 42 43 44 45 46 47 48 49 50
000
ASUS43 KBIS 231902
RWRND

NORTH DAKOTA REGIONAL WEATHER ROUNDUP
NATIONAL WEATHER SERVICE BISMARCK ND
200 PM CDT FRI JUN 23 2017

NOTE: "FAIR" INDICATES FEW OR NO CLOUDS BELOW 12,000 FEET WITH NO
SIGNIFICANT WEATHER AND/OR OBSTRUCTIONS TO VISIBILITY.


NDZ001>003-009>011-017-232000-
NORTHWEST NORTH DAKOTA

CITY           SKY/WX    TMP DP  RH WIND       PRES   REMARKS
WILLISTON      PTSUNNY   64  32  30 NW24G38   30.13F
MINOT          CLOUDY    61  39  44 NW26G33   30.03S
$$

NDZ018>021-031>035-040>046-232000-
SOUTHWEST NORTH DAKOTA

CITY           SKY/WX    TMP DP  RH WIND       PRES   REMARKS
BISMARCK       MOSUNNY   65  37  35 NW22G33   30.06F
DICKINSON      PTSUNNY   62  30  29 W25G38    30.11S
GARRISON         N/A     62  38  40 NW25G37   30.04F
HETTINGER ARPT MOSUNNY   63  30  28 NW23G33   30.15S
$$

NDZ004>008-012>016-024-026-027-054-232000-
NORTHEAST NORTH DAKOTA

CITY           SKY/WX    TMP DP  RH WIND       PRES   REMARKS
GRAND FORKS    PTSUNNY   64  46  52 NW16G26   29.88S
GRND FRKS AFB  PTSUNNY   65  45  49 NW17G28   29.89S
DEVILS LAKE    PTSUNNY   61  40  45 W23G31    29.94S
$$

NDZ022-023-025-028>030-036>039-047>053-232000-
SOUTHEAST NORTH DAKOTA

CITY           SKY/WX    TMP DP  RH WIND       PRES   REMARKS
FARGO          CLOUDY    64  49  57 NW22G30   29.90R
JAMESTOWN      PTSUNNY   64  39  39 NW21G31   29.96S
$$





USA.gov is the U.S. government's official web portal to all federal, state and local government web resources and services.